UAE751 OMDB-GMMN

Flight info

Callsign UAE751
Flight time N/A
Altitude 37000
Route ANVIX7F/30R ANVIX L223 TARDI N629 BOTAM Y855 LAKLU Q204 NALKI G652 TOKRA DCT ALROK DCT BOSOB DCT ITRUX Y511 PMA Z712 WEJ L677 CVO L617 NABSI M872 METRU DCT ARLOS DCT OMENI UL874 DIMAO UZ888 ORSUP UA411 FES UR975 SADIC
Aircraft A388/J-SADE2E3FGHIJ3J4J5M1RWXY/LB1D1

Departure

Time N/A
Airport Dubai International Airport (OMDB)

Arrival

Time 2026-05-08 05:49
Airport Mohammed V International Airport (GMMN)
Time Latitude Longitude Altitude Speed Heading
2026-05-08 04:42 35.24928 -0.82176 36994 ft 405 kts 245°
2026-05-08 04:42 35.22514 -0.88400 36982 ft 404 kts 245°
2026-05-08 04:43 35.19982 -0.94529 36961 ft 404 kts 243°
2026-05-08 04:43 35.17421 -1.00578 36956 ft 404 kts 243°
2026-05-08 04:44 35.14860 -1.06672 36958 ft 403 kts 243°
2026-05-08 04:44 35.12304 -1.12764 36957 ft 403 kts 243°
2026-05-08 04:45 35.09747 -1.18853 36970 ft 403 kts 243°
2026-05-08 04:45 35.07207 -1.24886 36951 ft 402 kts 243°
2026-05-08 04:46 35.04648 -1.30952 36945 ft 401 kts 243°
2026-05-08 04:46 35.02093 -1.37000 36943 ft 401 kts 243°
2026-05-08 04:47 34.99536 -1.43044 36939 ft 401 kts 243°
2026-05-08 04:47 34.96994 -1.49038 36944 ft 400 kts 243°
2026-05-08 04:48 34.94438 -1.55057 36951 ft 400 kts 242°
2026-05-08 04:48 34.91879 -1.61073 36954 ft 399 kts 242°
2026-05-08 04:49 34.89319 -1.67077 36953 ft 399 kts 242°
2026-05-08 04:49 34.86759 -1.73071 36957 ft 398 kts 242°
2026-05-08 04:50 34.84219 -1.79009 36954 ft 398 kts 242°
2026-05-08 04:50 34.81659 -1.84983 36947 ft 398 kts 242°
2026-05-08 04:51 34.79100 -1.90947 36956 ft 397 kts 242°
2026-05-08 04:51 34.76823 -1.97063 36941 ft 398 kts 248°
2026-05-08 04:52 34.75146 -2.03430 36935 ft 398 kts 250°
2026-05-08 04:52 34.73471 -2.09830 36937 ft 397 kts 250°
2026-05-08 04:53 34.71789 -2.16224 36935 ft 397 kts 250°
2026-05-08 04:53 34.70108 -2.22601 36926 ft 396 kts 250°
2026-05-08 04:54 34.68437 -2.28931 36930 ft 396 kts 250°
2026-05-08 04:54 34.66752 -2.35303 36944 ft 396 kts 250°
2026-05-08 04:55 34.65063 -2.41664 36943 ft 396 kts 250°
2026-05-08 04:55 34.63370 -2.48028 36939 ft 396 kts 250°
2026-05-08 04:56 34.61684 -2.54351 36939 ft 396 kts 250°
2026-05-08 04:56 34.59984 -2.60713 36938 ft 396 kts 250°
2026-05-08 04:57 34.58253 -2.67066 36941 ft 396 kts 249°
2026-05-08 04:57 34.56510 -2.73409 36963 ft 396 kts 249°
2026-05-08 04:58 34.54781 -2.79742 36957 ft 395 kts 249°
2026-05-08 04:58 34.53083 -2.86036 36950 ft 395 kts 249°
2026-05-08 04:59 34.51371 -2.92360 36950 ft 394 kts 249°
2026-05-08 04:59 34.49655 -2.98671 36948 ft 394 kts 249°
2026-05-08 05:00 34.47941 -3.04962 36943 ft 393 kts 249°
2026-05-08 05:00 34.46235 -3.11209 36948 ft 393 kts 249°
2026-05-08 05:01 34.44515 -3.17489 36939 ft 392 kts 249°
2026-05-08 05:01 34.42796 -3.23755 36934 ft 391 kts 249°
2026-05-08 05:02 34.41078 -3.29998 36931 ft 391 kts 249°
2026-05-08 05:02 34.39369 -3.36201 36936 ft 391 kts 249°
2026-05-08 05:03 34.37646 -3.42437 36940 ft 390 kts 249°
2026-05-08 05:03 34.35922 -3.48674 36926 ft 391 kts 249°
2026-05-08 05:04 34.34229 -3.54928 36924 ft 391 kts 249°
2026-05-08 05:04 34.32554 -3.61137 36928 ft 391 kts 249°
2026-05-08 05:05 34.30858 -3.67391 36928 ft 391 kts 249°
2026-05-08 05:05 34.29155 -3.73646 36932 ft 392 kts 249°
2026-05-08 05:06 34.27449 -3.79902 36932 ft 392 kts 249°
2026-05-08 05:06 34.25745 -3.86134 36954 ft 393 kts 249°
2026-05-08 05:07 34.24026 -3.92410 36954 ft 393 kts 249°
2026-05-08 05:07 34.22304 -3.98677 36944 ft 393 kts 249°
2026-05-08 05:08 34.20583 -4.04931 36938 ft 392 kts 248°
2026-05-08 05:08 34.18874 -4.11126 36933 ft 391 kts 248°
2026-05-08 05:09 34.17150 -4.17361 36933 ft 391 kts 249°
2026-05-08 05:09 34.15380 -4.23568 36929 ft 391 kts 248°
2026-05-08 05:10 34.12713 -4.32805 36923 ft 390 kts 248°
2026-05-08 05:11 34.10930 -4.38994 36932 ft 391 kts 248°
2026-05-08 05:11 34.09142 -4.45185 36931 ft 391 kts 248°
2026-05-08 05:12 34.07350 -4.51378 36939 ft 391 kts 248°
2026-05-08 05:12 34.05565 -4.57531 36972 ft 391 kts 248°
2026-05-08 05:13 34.03764 -4.63729 36931 ft 391 kts 248°
2026-05-08 05:13 34.01965 -4.69907 36935 ft 391 kts 248°
2026-05-08 05:14 34.00159 -4.76094 36936 ft 391 kts 248°
2026-05-08 05:14 33.98367 -4.82221 36938 ft 390 kts 248°
2026-05-08 05:15 33.96560 -4.88385 36937 ft 390 kts 248°
2026-05-08 05:15 33.94747 -4.94553 36943 ft 391 kts 248°
2026-05-08 05:16 33.93004 -5.00785 36944 ft 394 kts 251°
2026-05-08 05:16 33.91907 -5.07231 36949 ft 397 kts 256°
2026-05-08 05:17 33.90991 -5.13792 36954 ft 397 kts 256°
2026-05-08 05:17 33.90056 -5.20346 36950 ft 397 kts 256°
2026-05-08 05:18 33.89121 -5.26888 36934 ft 397 kts 256°
2026-05-08 05:18 33.88189 -5.33385 36964 ft 396 kts 256°
2026-05-08 05:19 33.87246 -5.39929 36918 ft 397 kts 256°
2026-05-08 05:19 33.86302 -5.46467 36913 ft 396 kts 256°
2026-05-08 05:20 33.85360 -5.52958 36912 ft 396 kts 256°
2026-05-08 05:20 33.84411 -5.59481 36911 ft 396 kts 256°
2026-05-08 05:21 33.83457 -5.66007 36818 ft 395 kts 256°
2026-05-08 05:21 33.82982 -5.69248 36224 ft 395 kts 256°
2026-05-08 05:21 33.82499 -5.72524 35272 ft 401 kts 256°
2026-05-08 05:21 33.82006 -5.75852 34286 ft 406 kts 256°
2026-05-08 05:22 33.81514 -5.79191 33355 ft 405 kts 256°
2026-05-08 05:22 33.81024 -5.82516 32561 ft 402 kts 256°
2026-05-08 05:22 33.80542 -5.85778 31735 ft 401 kts 257°
2026-05-08 05:22 33.80055 -5.89064 31151 ft 396 kts 257°
2026-05-08 05:23 33.79577 -5.92281 30775 ft 386 kts 257°
2026-05-08 05:23 33.79108 -5.95433 30222 ft 381 kts 257°
2026-05-08 05:23 33.78643 -5.98552 29653 ft 377 kts 257°
2026-05-08 05:23 33.78183 -6.01621 29135 ft 370 kts 257°
2026-05-08 05:24 33.77730 -6.04642 28614 ft 364 kts 257°
2026-05-08 05:24 33.77290 -6.07581 28117 ft 359 kts 257°
2026-05-08 05:24 33.76850 -6.10512 27623 ft 355 kts 257°
2026-05-08 05:24 33.76412 -6.13411 27127 ft 350 kts 257°
2026-05-08 05:25 33.75980 -6.16277 26640 ft 347 kts 257°
2026-05-08 05:25 33.75551 -6.19114 26155 ft 343 kts 257°
2026-05-08 05:25 33.75127 -6.21921 25681 ft 340 kts 257°
2026-05-08 05:25 33.74705 -6.24709 25209 ft 338 kts 258°
2026-05-08 05:26 33.74285 -6.27474 24743 ft 335 kts 258°
2026-05-08 05:26 33.73868 -6.30220 24287 ft 333 kts 258°
2026-05-08 05:26 33.73457 -6.32918 23833 ft 332 kts 258°
2026-05-08 05:26 33.73044 -6.35645 23349 ft 331 kts 258°
2026-05-08 05:27 33.72637 -6.38353 22880 ft 328 kts 258°
2026-05-08 05:27 33.72235 -6.41041 22411 ft 325 kts 258°
2026-05-08 05:27 33.71835 -6.43706 21997 ft 322 kts 258°
2026-05-08 05:27 33.71439 -6.46341 21565 ft 321 kts 258°
2026-05-08 05:28 33.71041 -6.48975 21142 ft 321 kts 258°
2026-05-08 05:28 33.70642 -6.51619 20716 ft 321 kts 259°
2026-05-08 05:28 33.70250 -6.54212 20282 ft 319 kts 259°
2026-05-08 05:28 33.69854 -6.56832 19856 ft 317 kts 259°
2026-05-08 05:29 33.69457 -6.59427 19443 ft 315 kts 259°
2026-05-08 05:29 33.69052 -6.62014 19035 ft 315 kts 259°
2026-05-08 05:29 33.68645 -6.64590 18610 ft 313 kts 259°
2026-05-08 05:29 33.68240 -6.67151 18202 ft 312 kts 259°
2026-05-08 05:30 33.67837 -6.69705 17760 ft 310 kts 259°
2026-05-08 05:30 33.67437 -6.72242 17362 ft 309 kts 259°
2026-05-08 05:30 33.67043 -6.74741 16964 ft 308 kts 259°
2026-05-08 05:30 33.66646 -6.77258 16564 ft 307 kts 258°
2026-05-08 05:31 33.66248 -6.79773 16168 ft 306 kts 258°
2026-05-08 05:31 33.65850 -6.82283 15773 ft 306 kts 258°
2026-05-08 05:31 33.65449 -6.84783 15386 ft 304 kts 256°
2026-05-08 05:31 33.64694 -6.87150 14999 ft 305 kts 240°
2026-05-08 05:32 33.63368 -6.89136 14617 ft 307 kts 225°
2026-05-08 05:32 33.61594 -6.90571 14241 ft 312 kts 208°
2026-05-08 05:32 33.59536 -6.91432 13823 ft 314 kts 202°
2026-05-08 05:32 33.57490 -6.92220 13416 ft 312 kts 202°
2026-05-08 05:33 33.55432 -6.93033 13032 ft 310 kts 202°
2026-05-08 05:33 33.53396 -6.93842 12658 ft 308 kts 202°
2026-05-08 05:33 33.51367 -6.94647 12271 ft 306 kts 202°
2026-05-08 05:33 33.49350 -6.95447 11903 ft 304 kts 201°
2026-05-08 05:34 33.47340 -6.96242 11540 ft 304 kts 201°
2026-05-08 05:34 33.45340 -6.97033 11161 ft 302 kts 201°
2026-05-08 05:34 33.43353 -6.97817 10798 ft 300 kts 201°
2026-05-08 05:34 33.41401 -6.98587 10457 ft 298 kts 200°
2026-05-08 05:35 33.39474 -6.99345 10344 ft 286 kts 200°
2026-05-08 05:35 33.37620 -7.00074 10182 ft 277 kts 200°
2026-05-08 05:35 33.35794 -7.00793 9947 ft 275 kts 200°
2026-05-08 05:35 33.33981 -7.01507 9776 ft 273 kts 200°
2026-05-08 05:36 33.32182 -7.02216 9634 ft 273 kts 200°
2026-05-08 05:36 33.30374 -7.02929 9512 ft 274 kts 200°
2026-05-08 05:36 33.28590 -7.03631 9344 ft 274 kts 200°
2026-05-08 05:36 33.26781 -7.04342 9133 ft 274 kts 200°
2026-05-08 05:37 33.24988 -7.05045 8870 ft 268 kts 200°
2026-05-08 05:37 33.23237 -7.05732 8641 ft 262 kts 200°
2026-05-08 05:37 33.21527 -7.06403 8419 ft 256 kts 200°
2026-05-08 05:37 33.19874 -7.07133 8168 ft 250 kts 211°
2026-05-08 05:38 33.18583 -7.08457 7976 ft 247 kts 233°
2026-05-08 05:38 33.17854 -7.10294 7741 ft 247 kts 256°
2026-05-08 05:38 33.17571 -7.12301 7509 ft 249 kts 259°
2026-05-08 05:38 33.17270 -7.14329 7296 ft 249 kts 258°
2026-05-08 05:39 33.16954 -7.16352 7063 ft 248 kts 258°
2026-05-08 05:39 33.16635 -7.18369 6839 ft 248 kts 258°
2026-05-08 05:39 33.16318 -7.20386 6621 ft 247 kts 258°
2026-05-08 05:39 33.16002 -7.22400 6393 ft 247 kts 258°
2026-05-08 05:40 33.15691 -7.24401 6139 ft 245 kts 258°
2026-05-08 05:40 33.15380 -7.26389 5986 ft 240 kts 258°
2026-05-08 05:40 33.15084 -7.28282 5861 ft 232 kts 258°
2026-05-08 05:40 33.14789 -7.30166 5476 ft 232 kts 258°
2026-05-08 05:41 33.14490 -7.32070 5162 ft 235 kts 259°
2026-05-08 05:41 33.14189 -7.33987 5026 ft 235 kts 259°
2026-05-08 05:41 33.13889 -7.35896 4836 ft 234 kts 259°
2026-05-08 05:41 33.13589 -7.37808 4628 ft 235 kts 259°
2026-05-08 05:42 33.13287 -7.39733 4378 ft 235 kts 259°
2026-05-08 05:42 33.12984 -7.41659 4141 ft 236 kts 259°
2026-05-08 05:42 33.12684 -7.43559 3964 ft 235 kts 259°
2026-05-08 05:42 33.12385 -7.45461 3947 ft 234 kts 259°
2026-05-08 05:43 33.12085 -7.47374 3945 ft 235 kts 262°
2026-05-08 05:43 33.12238 -7.49278 3946 ft 234 kts 296°
2026-05-08 05:43 33.13290 -7.50726 3949 ft 233 kts 326°
2026-05-08 05:43 33.14703 -7.51584 3934 ft 222 kts 339°
2026-05-08 05:44 33.16137 -7.52151 3941 ft 214 kts 343°
2026-05-08 05:44 33.17539 -7.52629 3948 ft 207 kts 344°
2026-05-08 05:44 33.18933 -7.53110 3921 ft 208 kts 344°
2026-05-08 05:44 33.20256 -7.53562 3703 ft 193 kts 344°
2026-05-08 05:45 33.21523 -7.53995 3438 ft 187 kts 345°
2026-05-08 05:45 33.22771 -7.54422 3191 ft 186 kts 345°
2026-05-08 05:45 33.23969 -7.54833 2942 ft 172 kts 345°
2026-05-08 05:45 33.25088 -7.55216 2712 ft 165 kts 346°
2026-05-08 05:46 33.26180 -7.55590 2490 ft 159 kts 346°
2026-05-08 05:46 33.27207 -7.55935 2288 ft 149 kts 345°
2026-05-08 05:46 33.28193 -7.56267 2131 ft 146 kts 345°
2026-05-08 05:46 33.29148 -7.56616 1951 ft 145 kts 344°
2026-05-08 05:47 33.30113 -7.56968 1751 ft 145 kts 345°
2026-05-08 05:47 33.31088 -7.57282 1531 ft 145 kts 345°
2026-05-08 05:47 33.32061 -7.57601 1360 ft 145 kts 345°
2026-05-08 05:47 33.33027 -7.57946 1120 ft 145 kts 344°
2026-05-08 05:48 33.33995 -7.58268 931 ft 144 kts 344°
2026-05-08 05:48 33.34954 -7.58607 729 ft 144 kts 344°
2026-05-08 05:48 33.35856 -7.58903 659 ft 120 kts 344°
2026-05-08 05:48 33.36526 -7.59134 656 ft 84 kts 343°
2026-05-08 05:49 33.36894 -7.59263 659 ft 35 kts 344°
2026-05-08 05:49 33.37099 -7.59321 657 ft 26 kts 354°
2026-05-08 05:49 33.37270 -7.59309 659 ft 24 kts 12°
2026-05-08 05:49 33.37431 -7.59263 658 ft 24 kts 13°
2026-05-08 05:50 33.37580 -7.59220 659 ft 20 kts 14°
2026-05-08 05:50 33.37708 -7.59182 655 ft 18 kts 14°
2026-05-08 05:50 33.37814 -7.59097 653 ft 19 kts 65°
2026-05-08 05:50 33.37848 -7.58953 661 ft 17 kts 74°
2026-05-08 05:51 33.37884 -7.58812 658 ft 18 kts 73°
2026-05-08 05:51 33.37907 -7.58672 658 ft 17 kts 104°
2026-05-08 05:51 33.37848 -7.58556 658 ft 16 kts 126°
2026-05-08 05:51 33.37768 -7.58475 658 ft 15 kts 161°
2026-05-08 05:52 33.37689 -7.58447 658 ft 5 kts 164°
2026-05-08 05:52 33.37659 -7.58425 658 ft 6 kts 122°
2026-05-08 05:52 33.37636 -7.58374 658 ft 6 kts 119°
2026-05-08 05:52 33.37623 -7.58348 658 ft 1 kts 122°
2026-05-08 05:53 33.37622 -7.58345 658 ft 0 kts 122°